User: anonymous   Login
Location: Forst
(46.9333°N, 15.4333°E)
Time: 01:49:26
(UTC+00:00)
Language:

Cosmos 1602 - Orbit

View from above orbital plane
View from above orbital plane
View from above satellite
View from above satellite

Ground track
Ground track

The orbit data is extracted from the following two-line orbital elements,

1 15331U 84105A   21060.12942916  .00000969  00000-0  51307-4 0  9998
2 15331  82.5348  77.7924 0012960 295.5790  64.4102 15.14203163986237
Epoch (UTC): 01 March 2021 03:06:22
Eccentricity: 0.0012960
inclination: 82.5348°
perigee height: 514 km
apogee height: 532 km
right ascension of ascending node: 77.7924°
argument of perigee: 295.5790°
revolutions per day: 15.14203163
mean anomaly at epoch: 64.4102°
orbit number at epoch: 98623

The dashed part of the orbit path shows where the satellite is in the earth's shadow,  

DLR